| time (UTC) | temp C | wind direction | speed KPH | gust KPH | rain 1hr cm | rain 24hr cm | rain mn cm | humidity % | barometer mb |
| 20260506201530 | 32 | 0 | 3.2 | 11.3 | 0.00 | 0.00 | 0.00 | 60 | 1007.7 |
| 20260506200031 | 32 | 73 | 0.0 | 6.4 | 0.00 | 0.00 | 0.00 | 61 | 1007.8 |
| 20260506194531 | 32 | 0 | 1.6 | 9.7 | 0.00 | 0.00 | 0.00 | 63 | 1007.8 |
| 20260506193028 | 31 | 175 | 1.6 | 11.3 | 0.00 | 0.00 | 0.00 | 63 | 1007.8 |
| 20260506191528 | 31 | 71 | 1.6 | 14.5 | 0.00 | 0.00 | 0.00 | 66 | 1007.9 |
| 20260506190035 | 30 | 0 | 1.6 | 8.0 | 0.00 | 0.00 | 0.00 | 69 | 1008.2 |
| 20260506184529 | 29 | 0 | 3.2 | 11.3 | 0.00 | 0.00 | 0.00 | 73 | 1008.2 |
| 20260506183030 | 28 | 51 | 0.0 | 9.7 | 0.00 | 0.00 | 0.00 | 76 | 1008.5 |
| 20260506181533 | 27 | 110 | 1.6 | 6.4 | 0.00 | 0.00 | 0.00 | 77 | 1008.8 |
| 20260506180030 | 27 | 77 | 1.6 | 9.7 | 0.00 | 0.00 | 0.00 | 78 | 1009.0 |
| 20260506174530 | 27 | 96 | 0.0 | 9.7 | 0.00 | 0.00 | 0.00 | 77 | 1009.0 |
| 20260506173037 | 27 | 0 | 1.6 | 9.7 | 0.00 | 0.00 | 0.00 | 77 | 1009.1 |
| 20260506171528 | 27 | 0 | 1.6 | 8.0 | 0.00 | 0.00 | 0.00 | 78 | 1009.0 |
| 20260506170030 | 27 | 346 | 0.0 | 6.4 | 0.00 | 0.00 | 0.00 | 78 | 1009.1 |
| 20260506164528 | 27 | 0 | 1.6 | 11.3 | 0.00 | 0.00 | 0.00 | 80 | 1009.1 |
| 20260506163045 | 26 | 44 | 1.6 | 9.7 | 0.00 | 0.00 | 0.00 | 82 | 1009.1 |
| 20260506161530 | 26 | 83 | 1.6 | 11.3 | 0.00 | 0.00 | 0.00 | 85 | 1009.1 |
| 20260506160029 | 25 | 178 | 1.6 | 6.4 | 0.00 | 0.00 | 0.00 | 86 | 1008.9 |
| 20260506154537 | 25 | 0 | 0.0 | 4.8 | 0.00 | 0.00 | 0.00 | 87 | 1008.7 |
| 20260506153031 | 25 | 83 | 0.0 | 4.8 | 0.00 | 0.00 | 0.00 | 87 | 1008.6 |
| 20260506151537 | 24 | 0 | 0.0 | 4.8 | 0.00 | 0.00 | 0.00 | 87 | 1008.4 |
| 20260506150029 | 24 | 5 | 0.0 | 6.4 | 0.00 | 0.00 | 0.00 | 88 | 1008.3 |
| 20260506144529 | 24 | 0 | 0.0 | 4.8 | 0.00 | 0.00 | 0.00 | 88 | 1008.3 |
| 20260506143028 | 24 | 146 | 0.0 | 6.4 | 0.00 | 0.00 | 0.00 | 88 | 1008.0 |
| 20260506141532 | 24 | 223 | 1.6 | 6.4 | 0.00 | 0.00 | 0.00 | 88 | 1007.7 |
| 20260506140033 | 24 | 146 | 1.6 | 8.0 | 0.00 | 0.00 | 0.00 | 88 | 1007.4 |
| 20260506134528 | 23 | 199 | 1.6 | 9.7 | 0.00 | 0.00 | 0.00 | 88 | 1007.0 |
| 20260506133029 | 23 | 142 | 3.2 | 11.3 | 0.00 | 0.00 | 0.00 | 89 | 1006.9 |
| 20260506131534 | 23 | 152 | 3.2 | 14.5 | 0.00 | 0.00 | 0.00 | 89 | 1006.7 |
| 20260506130030 | 23 | 194 | 4.8 | 14.5 | 0.00 | 0.00 | 0.00 | 89 | 1006.6 |
| 20260506124530 | 23 | 161 | 3.2 | 12.9 | 0.00 | 0.00 | 0.00 | 89 | 1006.5 |
| 20260506123030 | 23 | 188 | 1.6 | 14.5 | 0.00 | 0.00 | 0.00 | 89 | 1006.7 |
| 20260506121527 | 23 | 166 | 3.2 | 9.7 | 0.00 | 0.00 | 0.00 | 89 | 1006.6 |
| 20260506120026 | 23 | 194 | 1.6 | 14.5 | 0.00 | 0.00 | 0.00 | 89 | 1006.5 |
| 20260506114526 | 23 | 205 | 1.6 | 6.4 | 0.00 | 0.00 | 0.00 | 89 | 1006.5 |
| 20260506113028 | 23 | 0 | 0.0 | 6.4 | 0.00 | 0.00 | 0.00 | 89 | 1006.5 |
| 20260506111530 | 23 | 200 | 4.8 | 12.9 | 0.00 | 0.00 | 0.00 | 88 | 1006.5 |
| 20260506110028 | 23 | 190 | 1.6 | 9.7 | 0.00 | 0.00 | 0.00 | 88 | 1006.5 |
| 20260506104525 | 23 | 188 | 1.6 | 12.9 | 0.00 | 0.00 | 0.00 | 88 | 1006.2 |
| 20260506103029 | 23 | 204 | 4.8 | 12.9 | 0.00 | 0.00 | 0.00 | 88 | 1006.3 |
| 20260506101530 | 23 | 209 | 3.2 | 11.3 | 0.00 | 0.00 | 0.00 | 88 | 1006.3 |
| 20260506100031 | 24 | 180 | 4.8 | 12.9 | 0.00 | 0.00 | 0.00 | 87 | 1006.1 |
| 20260506094530 | 24 | 148 | 3.2 | 14.5 | 0.00 | 0.00 | 0.00 | 87 | 1006.1 |
| 20260506093026 | 24 | 158 | 6.4 | 12.9 | 0.00 | 0.00 | 0.00 | 87 | 1006.1 |
| 20260506091527 | 24 | 165 | 6.4 | 16.1 | 0.00 | 0.00 | 0.00 | 87 | 1006.0 |
| 20260506090030 | 24 | 179 | 4.8 | 16.1 | 0.00 | 0.00 | 0.00 | 87 | 1005.9 |
| 20260506084536 | 24 | 221 | 4.8 | 16.1 | 0.00 | 0.00 | 0.00 | 87 | 1006.1 |
| 20260506083031 | 24 | 192 | 8.0 | 17.7 | 0.00 | 0.00 | 0.00 | 87 | 1006.2 |
| 20260506081528 | 24 | 184 | 6.4 | 16.1 | 0.00 | 0.00 | 0.00 | 87 | 1006.3 |
| 20260506073030 | 24 | 195 | 3.2 | 11.3 | 0.00 | 0.00 | 0.00 | 87 | 1006.6 |
| 20260506071528 | 24 | 192 | 8.0 | 20.9 | 0.00 | 0.00 | 0.00 | 87 | 1006.8 |
| 20260506061531 | 24 | 178 | 8.0 | 17.7 | 0.00 | 0.00 | 0.00 | 87 | 1006.7 |
| 20260506044530 | 25 | 164 | 3.2 | 9.7 | 0.00 | 0.00 | 0.00 | 85 | 1006.6 |
| 20260506043027 | 25 | 164 | 4.8 | 16.1 | 0.00 | 0.00 | 0.00 | 85 | 1006.7 |
| 20260506041539 | 25 | 178 | 8.0 | 14.5 | 0.00 | 0.00 | 0.00 | 84 | 1006.5 |
| 20260506040029 | 25 | 154 | 8.0 | 16.1 | 0.00 | 0.00 | 0.00 | 84 | 1006.3 |
| 20260506034546 | 25 | 180 | 4.8 | 12.9 | 0.00 | 0.00 | 0.00 | 83 | 1006.0 |
| 20260506033028 | 26 | 152 | 6.4 | 16.1 | 0.00 | 0.00 | 0.00 | 83 | 1005.7 |
| 20260506031526 | 26 | 179 | 6.4 | 16.1 | 0.00 | 0.00 | 0.00 | 82 | 1005.7 |
| 20260506030027 | 26 | 163 | 4.8 | 17.7 | 0.00 | 0.00 | 0.00 | 81 | 1005.6 |
| 20260506024530 | 27 | 150 | 4.8 | 16.1 | 0.00 | 0.00 | 0.00 | 80 | 1005.3 |
| 20260506023027 | 27 | 138 | 8.0 | 19.3 | 0.00 | 0.00 | 0.00 | 78 | 1005.1 |
| 20260506021528 | 27 | 152 | 4.8 | 12.9 | 0.00 | 0.00 | 0.00 | 77 | 1005.0 |
| 20260506020028 | 28 | 180 | 6.4 | 17.7 | 0.00 | 0.00 | 0.00 | 75 | 1004.7 |
| 20260506014527 | 28 | 142 | 4.8 | 22.5 | 0.00 | 0.00 | 0.00 | 73 | 1004.6 |
| 20260506013043 | 28 | 167 | 3.2 | 14.5 | 0.00 | 0.00 | 0.00 | 71 | 1004.3 |
| 20260506011531 | 29 | 188 | 3.2 | 11.3 | 0.00 | 0.00 | 0.00 | 71 | 1004.0 |
| 20260506010027 | 29 | 145 | 1.6 | 8.0 | 0.00 | 0.00 | 0.00 | 70 | 1003.8 |
| 20260506004527 | 30 | 151 | 3.2 | 11.3 | 0.00 | 0.00 | 0.00 | 68 | 1003.7 |
| 20260506003027 | 30 | 163 | 4.8 | 11.3 | 0.00 | 0.00 | 0.00 | 67 | 1003.7 |
| 20260506001530 | 30 | 126 | 3.2 | 11.3 | 0.00 | 0.00 | 0.00 | 67 | 1003.7 |
| 20260506000029 | 30 | 130 | 0.0 | 8.0 | 0.00 | 0.00 | 0.00 | 65 | 1003.4 |
| 20260505234528 | 31 | 130 | 1.6 | 9.7 | 0.00 | 0.00 | 0.00 | 65 | 1003.5 |
| 20260505233029 | 30 | 152 | 3.2 | 8.0 | 0.00 | 0.00 | 0.00 | 66 | 1003.3 |
| 20260505231530 | 30 | 155 | 3.2 | 12.9 | 0.00 | 0.00 | 0.00 | 66 | 1003.3 |
| 20260505230028 | 31 | 161 | 0.0 | 9.7 | 0.00 | 0.00 | 0.00 | 65 | 1003.4 |
| 20260505224527 | 31 | 0 | 3.2 | 11.3 | 0.00 | 0.00 | 0.00 | 63 | 1003.4 |
| 20260505223037 | 31 | 118 | 3.2 | 14.5 | 0.00 | 0.00 | 0.00 | 64 | 1003.4 |
| 20260505221530 | 31 | 175 | 6.4 | 17.7 | 0.00 | 0.00 | 0.00 | 63 | 1003.5 |
| 20260505220046 | 31 | 151 | 4.8 | 12.9 | 0.00 | 0.00 | 0.00 | 63 | 1003.8 |
| 20260505214534 | 31 | 155 | 8.0 | 14.5 | 0.00 | 0.00 | 0.00 | 63 | 1004.0 |
| 20260505213033 | 31 | 175 | 4.8 | 14.5 | 0.00 | 0.00 | 0.00 | 63 | 1004.2 |
| 20260505211528 | 30 | 195 | 4.8 | 17.7 | 0.00 | 0.00 | 0.00 | 63 | 1004.4 |
| 20260505210033 | 30 | 144 | 1.6 | 12.9 | 0.00 | 0.00 | 0.00 | 64 | 1004.6 |
| 20260505204530 | 30 | 215 | 4.8 | 19.3 | 0.00 | 0.00 | 0.00 | 64 | 1004.8 |
| 20260505203026 | 31 | 185 | 8.0 | 17.7 | 0.00 | 0.00 | 0.00 | 63 | 1005.1 |